This is the latest recevied weather packets stored in our database for station/object IZ5TJI-3. If no packets are shown the sender has not sent any weather packets the latest 10 day(s).
| Time | Temp. | Humidity | Pressure | Rain* | Wind** | Luminosity | Snow |
|---|---|---|---|---|---|---|---|
| 1777552227 | 19.44° C | 35% | 1019.6 hPa | 0 mm | - | - | - |
| 1777551327 | 19.44° C | 37% | 1019.5 hPa | 0 mm | - | - | - |
| 1777550427 | 18.89° C | 37% | 1019.6 hPa | 0 mm | - | - | - |
| 1777549527 | 19.44° C | 37% | 1019.7 hPa | 0 mm | - | - | - |
| 1777548627 | 19.44° C | 37% | 1019.6 hPa | 0 mm | - | - | - |
| 1777547727 | 18.89° C | 38% | 1019.6 hPa | 0 mm | - | - | - |
| 1777546827 | 18.89° C | 38% | 1019.5 hPa | 0 mm | - | - | - |
| 1777545927 | 18.33° C | 39% | 1019.6 hPa | 0 mm | - | - | - |
| 1777545027 | 18.33° C | 39% | 1019.7 hPa | 0 mm | - | - | - |
| 1777544127 | 18.33° C | 39% | 1019.7 hPa | 0 mm | - | - | - |
| 1777543227 | 17.78° C | 41% | 1019.8 hPa | 0 mm | - | - | - |
| 1777542327 | 17.78° C | 42% | 1019.5 hPa | 0 mm | - | - | - |
| 1777541427 | 17.78° C | 44% | 1019.6 hPa | 0 mm | - | - | - |
| 1777540527 | 17.78° C | 43% | 1019.4 hPa | 0 mm | - | - | - |
| 1777539659 | 17.22° C | 43% | 1019.4 hPa | 0 mm | - | - | - |
| 1777539627 | 17.22° C | 43% | 1019.4 hPa | 0 mm | - | - | - |
| 1777538727 | 17.22° C | 43% | 1019.6 hPa | 0 mm | - | - | - |
| 1777537827 | 17.22° C | 43% | 1019.5 hPa | 0 mm | - | - | - |
| 1777536927 | 17.22° C | 46% | 1019.4 hPa | 0 mm | - | - | - |
| 1777536027 | 16.67° C | 49% | 1019.2 hPa | 0 mm | - | - | - |
| 1777535127 | 16.67° C | 50% | 1018.9 hPa | 0 mm | - | - | - |
| 1777534227 | 16.11° C | 55% | 1018.6 hPa | 0 mm | - | - | - |
| 1777533327 | 15.56° C | 55% | 1018.5 hPa | 0 mm | - | - | - |
| 1777532427 | 15.56° C | 58% | 1018.4 hPa | 0 mm | - | - | - |
| 1777531527 | 15.56° C | 59% | 1018.4 hPa | 0 mm | - | - | - |
* Rain latest hour (hover to see other rain measurements)
** Current wind speed in m/s (hover to see current wind gust speed)